RH
3 3 3 3 3 3 3 3 3 3 3 3 3 3 2 3 3 3 4 4 5 5 4 5 7 7 8 9 9 10 10 10 10 10 10 10 9 10 10 9 10 9 8 8 7 8 10 11 10 11 11 10 10 10 11 12 12 13 15 16 19 22 25 27 22 14 13 14 14 17 20 21 23 24 25 28 31 33 36 38 40 43 46 45 52 56 33
3 3 3 3 3 3 3 3 3 3 3 3 3 3 3 3 3 3 3 4 5 5 3 4 5 6 7 8 7 8 8 8 8 8 7 7 7 8 8 7 7 6 6 6 5 7 8 8 9 9 8 8 9 9 10 11 12 13 15 17 19 22 25 29 28 25 23 21 20 22 24 26 27 26 26 30 34 36 36 35 42 48 44 42 51 52 32
3 3 3 3 3 3 3 3 3 3 3 3 3 3 3 3 3 3 3 3 4 3 3 3 4 5 6 6 5 5 6 5 6 5 5 5 5 6 6 5 6 6 6 6 6 7 7 8 9 8 8 9 9 9 10 10 12 13 16 18 20 21 24 28 33 34 33 30 27 27 28 28 25 22 24 29 33 39 39 40 49 52 44 42 47 43 30
3 3 3 3 3 3 3 2 3 3 2 3 3 3 3 3 3 3 3 3 3 3 3 3 4 4 5 4 4 4 4 4 5 5 5 5 5 6 6 6 7 7 7 8 8 8 9 9 9 9 9 10 10 10 10 10 11 13 15 17 19 21 20 23 29 31 31 30 26 26 29 27 21 18 21 25 30 34 38 46 52 47 44 44 36 30 30
3 2 2 3 2 2 2 2 2 2 2 2 2 3 3 3 3 3 3 3 3 3 3 3 3 4 4 4 4 4 5 5 6 6 6 7 7 7 8 8 9 9 9 9 10 10 10 10 10 11 11 10 11 11 10 11 11 12 15 17 19 19 17 18 22 20 22 25 21 21 26 26 21 18 17 21 26 29 32 37 37 37 48 46 27 23 30
3 3 2 3 2 2 3 2 2 3 3 2 2 3 3 3 3 3 3 3 3 3 4 4 4 5 4 5 5 6 7 7 7 8 8 9 9 9 10 10 10 11 11 11 11 11 12 12 13 13 12 12 12 11 11 12 12 13 15 16 18 18 17 19 19 15 16 18 17 18 21 22 20 18 16 18 23 24 24 23 24 34 46 39 24 24 27
3 3 2 2 2 2 2 2 2 2 2 2 2 2 2 2 2 2 2 2 2 3 3 4 5 5 4 5 6 7 8 7 7 8 8 9 9 9 10 11 12 12 12 12 12 12 13 13 14 14 13 13 12 12 13 13 13 15 16 17 18 19 19 20 19 16 12 13 16 17 18 19 18 15 16 18 20 22 22 20 21 29 34 29 28 30 26
2 2 2 1 1 1 1 1 1 1 1 1 1 1 1 1 1 1 1 1 1 2 3 4 5 4 3 4 5 5 6 6 7 7 7 8 9 9 10 12 12 12 13 12 12 13 14 14 14 14 14 13 12 13 14 13 15 17 17 17 18 20 21 21 21 19 13 12 16 16 17 21 19 15 17 18 21 24 24 21 22 28 31 31 32 32 30
1 1 1 1 1 1 1 1 1 1 1 1 1 1 1 1 1 1 2 1 1 2 2 3 3 2 2 3 3 4 4 5 6 6 5 7 8 8 9 10 11 11 11 11 11 12 14 14 14 14 15 14 14 14 14 14 16 16 17 18 18 21 23 20 23 25 18 13 15 16 19 21 18 17 19 20 24 28 24 23 26 32 36 36 35 36 38
1 1 1 1 1 1 1 1 1 1 1 1 1 1 1 1 1 1 2 1 1 2 2 2 3 2 2 2 3 3 3 4 5 6 5 6 6 7 7 8 9 9 9 9 9 11 12 11 12 13 15 15 14 14 14 15 16 16 17 18 18 21 22 19 25 30 21 15 19 22 24 24 21 21 21 23 29 29 22 22 28 34 39 39 37 37 40
1 1 1 1 1 1 1 1 1 1 2 1 2 1 1 2 1 1 2 1 1 2 2 2 2 2 2 3 2 3 3 3 4 5 5 5 5 6 6 7 7 8 8 8 7 8 8 8 9 10 12 14 13 14 15 16 16 17 18 19 19 18 19 20 26 31 26 22 25 29 31 30 26 23 22 26 30 27 23 25 28 31 33 33 35 37 38
1 1 1 1 1 1 1 2 2 2 2 2 2 2 2 2 1 1 2 1 1 2 2 2 2 2 3 3 3 3 3 4 4 5 5 5 6 6 6 6 7 8 7 6 6 6 6 7 8 8 9 12 13 14 16 17 18 19 19 19 19 19 23 26 28 33 34 31 33 38 37 32 29 27 24 26 29 28 28 27 24 28 32 33 36 38 37
1 1 1 1 1 2 2 2 2 2 2 2 2 2 2 2 2 2 2 2 2 2 2 2 2 3 3 3 4 4 4 5 5 5 6 6 6 7 7 6 7 7 6 6 6 5 6 7 8 8 9 12 14 15 17 19 21 23 24 25 27 31 35 35 35 38 39 37 40 43 38 31 30 30 29 32 33 32 33 30 26 31 37 37 39 40 41
1 1 2 2 2 2 2 2 3 2 2 3 2 2 2 2 2 2 2 2 1 1 2 2 2 3 3 3 4 4 4 5 5 6 6 6 6 7 6 6 7 7 6 7 6 6 6 8 8 7 9 12 15 16 17 20 22 26 32 36 40 45 44 41 42 44 43 42 42 41 40 36 31 32 36 38 35 33 40 43 34 30 35 40 43 48 55
2 2 2 2 2 3 3 3 3 3 3 3 2 3 2 2 2 2 2 2 2 2 2 2 2 3 3 3 4 4 5 5 5 6 6 6 6 6 6 7 8 7 7 7 7 7 8 10 10 11 12 15 19 19 18 17 19 24 32 38 41 45 46 46 48 48 46 49 49 48 48 40 30 33 40 37 31 35 48 52 35 24 35 46 49 55 61
3 3 3 3 3 3 3 3 3 3 3 3 3 3 2 2 2 2 2 2 2 2 2 1 2 2 2 3 3 4 4 5 4 5 5 5 5 5 6 7 7 7 7 7 8 8 9 11 13 15 18 19 22 23 19 15 13 16 23 28 31 37 43 47 50 48 47 52 55 57 52 36 22 26 33 34 36 43 53 55 36 20 31 49 56 59 59
2 2 2 3 3 2 3 3 3 3 3 3 3 3 2 3 3 2 2 2 2 2 2 1 2 2 2 3 3 3 3 3 4 4 4 5 5 4 5 6 5 6 6 6 7 8 8 9 10 11 15 17 19 24 23 17 12 12 16 22 25 29 38 44 46 46 47 50 54 54 43 25 12 14 23 35 41 44 53 59 40 17 23 48 66 67 61
2 3 2 3 3 3 3 3 3 3 3 3 3 3 3 3 3 3 3 2 2 2 1 1 2 2 2 2 2 2 3 3 3 3 3 4 4 3 4 5 4 5 4 4 5 6 6 8 8 9 11 12 18 24 25 21 17 13 14 19 19 20 31 38 36 40 46 49 51 49 32 13 6 10 22 36 39 40 48 53 42 33 39 56 68 70 66
2 3 3 3 3 3 3 3 3 3 3 3 3 3 3 3 3 3 3 3 2 2 2 2 2 2 2 2 2 2 2 2 2 2 3 3 2 3 4 4 3 3 3 3 4 5 6 6 8 11 11 11 17 22 20 18 17 14 16 21 20 20 27 30 30 39 46 45 50 51 31 9 4 12 24 34 39 45 50 47 46 55 64 66 66 67 68
2 2 3 3 3 3 4 3 3 3 3 4 4 3 3 4 4 4 4 3 3 2 2 2 2 2 2 2 2 2 2 2 2 2 2 2 2 3 3 3 3 3 2 3 4 5 7 6 8 13 13 12 17 19 15 11 9 11 18 23 23 24 28 28 30 39 45 46 52 51 31 10 9 18 27 36 45 54 58 56 57 65 72 72 67 65 68
2 2 3 3 3 3 4 3 3 4 3 4 4 4 4 4 4 4 4 4 4 3 3 3 2 3 2 2 2 2 1 2 2 2 2 2 2 2 2 2 3 2 2 3 3 6 8 6 8 12 13 12 16 18 17 13 7 6 14 20 21 22 25 29 34 39 45 46 40 28 13 7 13 24 31 36 43 52 62 68 70 70 73 75 71 67 71
2 2 2 3 3 3 3 3 3 3 3 4 4 4 4 4 5 5 4 4 4 3 3 4 3 3 3 2 2 2 1 2 2 2 2 2 2 3 2 3 3 3 3 3 3 5 7 6 7 9 8 10 15 16 17 18 11 7 11 18 20 17 17 25 30 29 31 29 17 6 4 6 13 22 28 30 34 44 60 73 77 78 81 84 82 78 78
1 2 2 2 2 3 3 3 3 3 3 4 3 4 4 4 5 5 5 5 4 3 4 4 4 4 4 3 3 2 2 2 2 2 3 2 2 3 3 3 4 3 4 5 4 5 6 5 7 8 5 10 17 16 14 15 12 10 12 13 12 11 14 22 21 16 18 17 7 3 7 7 10 16 21 27 37 49 65 77 82 87 92 93 90 86 85
1 1 2 2 2 2 2 2 3 3 3 3 3 4 4 3 4 5 5 5 4 4 4 5 5 5 4 3 3 2 2 2 2 2 3 3 3 4 3 4 5 4 4 5 4 5 6 5 6 7 5 10 17 17 15 13 11 13 13 9 6 9 16 20 16 15 23 20 6 3 8 11 15 20 24 35 51 64 74 83 89 93 97 96 93 92 93
1 1 2 1 1 2 2 2 2 2 2 3 3 3 3 3 4 4 4 5 5 5 5 5 5 6 5 4 3 3 2 3 2 2 3 3 3 4 4 4 5 4 5 6 5 6 6 5 6 7 6 10 14 14 14 13 12 14 13 8 8 13 16 15 13 16 21 16 6 11 18 15 18 30 41 52 65 74 81 89 95 99 100 98 97 98 99
1 1 2 1 1 2 1 2 2 2 2 2 2 2 2 2 3 4 5 5 5 5 6 6 5 6 5 4 4 3 3 3 3 3 3 3 3 4 4 4 5 5 5 5 5 6 6 6 7 8 7 11 14 12 12 13 13 14 11 8 10 14 13 15 17 18 18 15 16 30 37 26 18 29 48 65 79 88 92 95 99 101 101 100 100 100 100
1 1 2 1 1 2 1 2 2 1 2 2 2 2 2 2 3 4 4 5 5 6 7 6 5 5 5 5 4 4 3 3 3 3 4 4 4 4 5 5 5 5 6 6 6 6 6 6 8 9 10 12 14 12 12 13 12 12 10 8 12 16 15 18 24 27 28 30 35 49 60 54 42 43 56 72 87 97 99 99 100 101 100 100 101 100 99
1 2 2 1 2 2 1 2 2 1 2 2 1 2 2 2 3 4 4 5 6 6 6 6 5 5 5 5 5 4 4 4 3 4 4 4 5 5 5 5 6 6 6 7 6 6 7 7 7 9 11 13 14 13 13 13 12 11 9 8 15 22 25 30 39 44 45 45 47 55 66 70 68 68 74 83 92 98 100 100 100 100 99 100 100 100 100
2 2 2 2 2 2 2 2 2 1 2 2 2 2 2 2 3 4 4 5 5 5 5 5 4 4 5 5 5 4 4 4 4 5 5 4 5 5 5 6 6 6 6 7 6 7 7 7 9 10 11 13 16 14 11 13 13 10 8 13 24 32 36 42 50 53 51 47 48 53 64 73 78 82 89 95 98 99 100 100 100 100 100 100 100 100 100
2 2 2 2 2 2 2 2 2 2 2 2 2 2 2 3 3 3 4 4 4 4 5 4 3 4 4 4 5 5 4 5 5 5 5 5 6 6 6 6 7 7 7 7 7 7 8 9 10 10 10 13 18 16 14 14 12 9 13 23 29 30 30 35 45 51 54 53 53 56 67 80 87 91 96 99 100 100 100 100 100 100 99 99 100 100 101
3 3 3 3 3 2 2 2 2 2 2 2 2 3 3 3 4 3 4 4 4 4 4 4 4 4 4 4 5 5 5 6 6 6 7 7 6 7 7 7 7 7 7 8 8 9 10 10 10 10 11 14 18 17 14 13 12 15 22 26 24 22 26 33 40 47 55 61 62 61 67 79 87 92 95 96 97 100 100 100 100 100 100 101 101 99 95
7 7 5 5 4 3 3 3 2 2 3 3 3 3 3 3 4 4 4 4 4 4 4 4 4 5 5 5 6 6 7 7 7 7 8 8 8 8 8 8 8 8 8 10 10 10 10 11 11 12 14 15 17 16 13 15 22 30 31 27 24 27 32 37 41 45 55 69 79 81 79 81 86 91 95 96 98 100 100 100 100 100 97 93 88 81 71
11 10 8 7 6 5 4 4 3 3 3 3 3 4 4 4 4 4 4 4 4 5 5 5 5 6 6 7 7 8 8 8 8 8 8 8 9 9 9 9 10 10 10 11 11 12 12 13 13 14 15 17 19 18 16 22 33 38 38 36 37 38 40 44 50 55 62 76 91 98 97 95 96 98 99 100 101 100 99 97 91 82 71 61 54 48 41
13 12 11 10 9 7 6 5 4 4 4 4 4 4 4 4 4 4 5 5 6 6 6 7 7 8 8 8 8 8 8 9 9 9 9 9 10 10 10 11 11 11 11 12 13 13 14 15 16 18 18 19 21 22 24 30 34 34 35 39 43 45 48 51 55 57 63 76 91 100 101 100 100 100 99 98 96 92 85 76 63 50 40 33 28 25 21
14 14 13 12 11 10 8 7 6 5 5 5 5 5 5 5 5 6 6 7 8 8 8 9 9 9 9 9 9 9 9 10 10 10 10 10 11 11 11 12 12 13 14 15 15 16 17 18 20 20 20 20 23 27 31 34 34 34 39 44 47 53 60 65 68 72 80 88 96 99 98 96 96 96 92 86 78 68 55 44 34 28 24 21 19 17 15
16 16 16 15 13 12 11 9 8 7 6 6 6 6 6 6 7 8 8 9 9 10 10 11 10 10 10 10 10 10 10 10 10 11 11 11 12 13 13 13 14 15 16 17 18 18 19 20 21 21 20 22 26 30 35 39 43 48 54 59 64 75 86 92 94 95 95 95 94 93 92 90 87 80 70 60 49 38 29 23 21 21 20 19 17 15 14
19 19 19 17 16 14 12 10 9 9 8 8 7 7 8 8 9 9 10 11 12 12 12 11 12 12 12 11 11 10 10 11 11 12 12 13 14 15 15 16 18 19 20 20 20 20 21 22 22 21 22 25 29 35 42 50 57 64 70 76 83 92 98 99 97 94 91 90 89 85 77 68 59 49 40 33 28 25 23 24 25 26 25 21 18 19 21
22 22 21 19 17 15 13 12 12 10 9 9 9 9 10 10 11 12 13 13 13 12 12 13 13 13 12 11 11 10 11 12 13 13 14 16 16 17 18 20 21 22 22 21 20 22 23 22 21 22 24 29 35 41 47 54 62 71 81 90 97 99 98 95 91 87 80 72 65 58 50 42 36 31 28 28 27 27 28 30 31 30 27 24 23 25 27
23 22 21 20 18 16 15 14 13 11 10 10 11 11 12 13 14 15 15 14 13 13 14 14 13 12 11 11 11 12 13 14 15 15 17 18 19 21 23 24 24 25 24 21 21 23 24 23 23 23 24 29 36 41 45 50 58 67 77 89 96 96 94 91 87 78 65 50 41 39 37 35 33 32 32 34 34 33 31 30 30 30 28 26 26 28 29
24 22 21 20 19 17 15 14 13 12 12 13 13 14 15 15 15 15 15 14 14 15 15 14 12 12 12 12 13 14 16 17 17 19 20 22 23 25 25 25 26 27 24 21 21 24 26 26 24 22 23 30 38 42 46 53 59 65 72 82 89 91 91 89 83 69 52 38 32 34 37 38 38 38 38 40 40 38 36 34 32 31 31 29 29 29 31
23 22 21 20 18 17 15 15 14 15 15 16 16 16 16 16 16 16 16 16 15 14 13 12 12 12 14 15 16 17 18 19 21 23 24 24 25 26 26 25 26 27 25 22 22 25 27 27 25 23 28 37 44 48 54 62 68 71 76 83 89 89 84 73 59 43 32 29 34 40 44 45 44 44 44 44 41 37 34 30 28 27 26 26 26 26 27
23 22 21 20 19 17 17 17 17 18 18 18 17 17 17 16 17 17 16 15 14 12 12 13 14 15 16 18 19 20 22 24 25 26 27 27 27 27 25 24 25 27 25 22 22 25 27 28 26 27 35 45 54 62 72 78 81 84 86 84 77 67 54 41 33 32 35 43 49 51 51 50 48 47 45 39 33 27 23 20 20 21 23 27 32 36 39
23 22 21 20 20 19 19 20 21 21 20 18 17 17 17 17 16 16 14 13 13 13 14 15 16 18 20 21 23 24 26 28 28 29 29 28 27 26 25 23 23 24 23 22 23 26 26 25 28 37 48 57 65 73 82 84 82 77 69 57 44 37 34 37 42 46 48 48 45 42 40 38 36 34 31 25 21 20 21 22 26 35 45 56 63 66 66
24 23 22 22 21 20 20 21 22 21 19 18 18 18 17 16 15 14 13 13 14 15 17 19 20 22 24 25 27 29 29 30 30 30 29 27 26 26 26 24 22 23 24 23 24 25 25 26 34 46 56 62 66 69 71 69 60 49 41 37 37 41 46 47 46 42 37 34 32 29 26 24 24 24 24 24 26 31 36 40 47 59 72 81 84 83 81
25 24 23 22 22 21 21 21 21 21 19 19 19 18 16 15 15 14 14 15 17 19 21 23 24 26 28 30 31 31 31 31 30 28 26 26 25 25 25 24 25 29 31 30 28 29 30 34 44 54 61 64 64 59 51 44 40 39 42 46 49 48 45 40 35 31 29 27 25 24 25 28 31 31 32 34 41 51 61 69 76 83 89 92 91 90 89
25 24 24 23 23 23 23 22 21 21 21 20 19 17 16 15 15 15 16 19 21 23 25 27 28 29 31 32 33 33 31 28 26 24 25 28 28 24 22 24 28 34 39 40 37 34 35 44 57 64 61 55 49 42 38 39 45 48 49 46 41 36 31 28 28 28 27 26 27 31 35 37 37 39 46 56 66 75 83 87 89 91 95 97 96 96 96
26 25 25 25 24 24 24 23 23 22 21 19 18 17 16 16 16 18 20 23 25 27 28 29 30 33 34 33 33 31 27 23 22 23 26 29 29 24 23 26 30 32 36 40 40 41 47 58 64 59 50 43 41 41 43 46 44 38 34 34 35 34 34 34 35 35 34 35 39 41 40 40 46 60 75 86 88 87 87 87 85 86 89 90 89 90 95
26 26 27 27 26 25 25 24 23 22 20 18 17 17 17 18 20 22 25 27 29 30 30 31 33 35 34 32 30 27 22 20 22 24 27 29 29 27 28 32 31 28 30 40 49 55 58 60 57 50 46 44 42 39 36 32 26 27 38 51 55 52 49 48 47 42 39 43 49 51 52 59 73 88 97 98 94 87 83 82 83 85 87 89 89 90 92
28 28 28 28 27 26 25 24 23 21 19 18 18 19 20 22 25 27 29 30 31 32 33 34 35 34 31 28 25 22 20 21 24 25 23 24 26 29 33 37 36 34 39 49 55 54 50 47 47 45 41 35 29 26 25 24 28 42 59 67 63 54 50 51 50 47 49 58 69 73 74 82 94 99 97 96 96 90 83 82 87 91 93 96 99 99 97
30 30 29 28 27 27 25 24 22 20 19 19 20 22 24 26 28 30 31 32 33 35 36 35 33 30 27 24 21 20 21 23 24 21 19 19 25 31 37 40 41 43 46 47 45 42 39 38 36 31 25 21 23 28 32 37 47 61 67 62 53 50 54 59 62 64 68 74 80 82 82 88 97 100 97 97 98 94 88 87 92 97 98 99 101 102 101
31 31 30 29 28 27 25 23 21 20 20 22 23 25 27 29 31 32 34 35 36 36 34 31 28 25 22 21 21 22 23 22 20 17 16 19 26 35 40 41 39 40 40 38 34 31 29 27 24 21 22 26 33 38 44 53 63 69 67 61 60 65 71 73 74 74 75 76 78 80 82 88 94 98 96 93 91 91 90 89 91 95 97 99 101 102 102
33 32 31 30 28 27 24 23 22 22 23 24 25 27 30 32 33 35 36 37 36 34 30 27 23 21 21 23 24 23 21 19 17 16 15 18 25 32 36 35 33 33 33 31 26 20 18 19 21 25 30 35 39 42 46 53 58 61 62 65 70 76 79 78 75 75 77 79 80 82 84 87 90 93 91 87 86 89 92 91 91 92 94 95 98 101 102
Wind_Speed
7 7 7 7 7 7 8 8 9 9 9 10 10 9 8 7 9 11 10 10 10 7 8 11 11 13 14 13 13 12 12 12 12 12 12 12 13 13 13 15 15 16 17 17 19 19 14 14 17 17 17 19 20 20 22 23 24 24 24 24 24 22 18 22 31 36 32 23 15 10 12 20 28 30 31 28 24 22 20 19 20 18 19 19 6 7 27
6 6 7 7 7 7 7 7 7 8 8 9 9 8 7 7 8 9 9 11 9 6 9 13 12 12 13 12 12 12 12 13 12 12 13 13 13 13 13 15 15 17 18 17 19 19 16 15 17 18 19 20 20 21 23 23 23 24 23 23 23 20 17 21 26 26 24 22 16 14 21 32 35 34 33 31 28 24 21 24 23 18 25 25 8 11 30
6 7 7 7 7 7 7 7 7 7 8 8 8 7 7 7 7 8 9 11 9 6 10 13 11 12 11 11 13 13 12 13 13 13 13 14 14 14 14 16 16 17 17 17 18 18 18 18 18 19 21 21 21 22 23 23 23 22 22 22 23 23 22 22 17 11 11 12 14 21 31 37 36 35 34 33 31 25 21 20 17 15 23 26 17 22 37
7 7 7 8 8 8 8 8 7 7 7 6 7 7 7 7 7 8 8 9 9 9 12 12 11 12 10 10 13 13 13 13 13 13 14 14 15 15 15 17 17 18 18 18 18 19 20 19 19 22 22 22 23 23 23 22 22 22 22 24 24 25 26 24 19 16 16 19 24 28 29 32 34 35 34 33 33 30 27 22 20 20 23 26 26 32 40
9 9 9 9 9 9 8 8 7 7 6 6 6 7 6 6 7 8 7 8 10 12 12 12 12 13 11 11 13 14 14 14 13 14 14 15 16 16 16 18 18 19 20 20 20 21 21 20 22 23 23 23 22 22 22 22 21 22 23 24 24 26 26 25 25 25 26 28 29 26 25 29 33 35 35 31 28 30 30 25 24 25 21 20 28 34 35
11 11 11 10 10 9 8 7 6 6 5 5 6 6 7 7 8 10 10 10 11 12 13 13 14 14 13 13 13 13 14 14 14 15 15 15 16 16 16 18 19 20 21 21 22 23 23 23 24 24 23 23 21 21 22 21 21 22 22 22 23 25 25 25 27 29 29 29 28 28 30 32 35 37 33 25 25 28 27 24 24 22 20 20 29 34 36
11 11 11 12 12 11 11 10 8 7 8 10 10 10 12 13 13 14 15 14 14 15 15 15 14 13 13 14 14 14 14 15 15 15 15 16 17 17 17 19 19 20 21 22 22 24 25 26 27 26 24 22 21 22 21 20 21 21 21 22 22 22 24 25 27 30 31 28 30 33 34 35 40 37 25 23 31 28 22 24 25 20 21 26 31 33 39
11 12 13 14 16 17 18 18 17 19 20 18 16 17 20 19 19 19 18 18 18 17 17 16 13 13 14 14 14 15 15 15 15 15 15 16 16 17 18 18 19 20 21 21 22 23 24 26 27 26 24 22 22 22 21 21 20 19 21 22 21 21 23 23 26 33 32 30 33 35 33 38 40 28 23 33 39 27 20 27 30 25 27 32 32 36 41
13 15 17 20 22 22 23 24 24 25 24 21 20 23 24 23 22 22 19 19 20 18 17 16 13 13 16 16 15 15 15 15 15 15 15 16 17 17 18 19 19 20 21 21 22 23 23 24 24 24 23 22 22 21 21 21 20 20 22 22 21 21 22 24 27 31 33 34 36 35 39 41 29 19 29 42 34 21 24 32 32 31 32 33 34 37 35
16 19 22 23 24 23 24 24 24 24 23 22 23 24 25 23 23 22 19 19 21 19 17 16 15 16 17 16 15 15 15 15 14 15 15 16 17 18 18 19 19 20 20 21 22 22 23 22 22 21 21 20 20 20 19 18 20 22 23 22 22 22 23 27 26 27 35 38 35 38 41 31 16 18 34 35 19 17 29 35 33 34 33 32 35 37 35
20 22 23 23 23 22 22 23 23 22 21 22 23 24 24 23 23 22 19 19 22 20 17 17 17 18 18 16 15 15 15 15 15 15 16 16 17 17 18 18 18 20 21 21 22 22 22 21 20 20 19 19 19 18 17 18 20 21 21 21 23 23 25 28 25 25 34 37 37 38 28 12 12 25 27 17 13 21 33 37 36 34 34 39 43 43 38
21 22 22 21 20 20 20 20 20 20 19 21 22 22 22 22 22 21 19 19 21 19 17 18 18 18 17 16 15 15 14 15 15 15 15 15 16 16 17 17 18 19 20 20 21 22 21 20 19 19 18 19 19 16 16 19 20 20 20 21 24 25 26 27 25 25 30 35 32 23 13 15 25 26 16 14 21 28 32 36 35 36 42 48 47 39 34
21 21 20 19 19 19 19 18 19 19 19 20 21 20 20 21 21 20 18 18 20 18 17 17 18 17 16 15 15 14 14 14 14 14 14 14 14 15 16 16 17 19 19 20 21 21 21 21 20 20 20 20 19 16 18 22 21 20 20 22 25 26 25 26 26 23 25 28 21 11 20 36 34 18 16 27 31 29 32 37 41 45 49 47 38 33 36
20 19 18 18 18 18 18 18 18 18 18 18 18 18 19 19 20 19 18 18 19 18 17 17 17 16 16 15 15 14 14 13 13 12 12 13 14 15 15 16 17 18 18 19 20 20 21 22 23 22 22 23 22 19 21 24 23 22 23 25 26 26 26 26 24 19 19 24 25 25 32 36 27 19 26 32 29 27 33 42 48 48 43 36 34 38 47
18 18 18 18 18 18 18 18 17 17 17 16 16 17 18 18 18 19 19 19 18 18 18 17 17 17 16 16 15 14 13 12 12 12 12 13 14 15 15 15 17 17 18 19 19 20 21 22 24 23 23 24 23 21 23 25 25 24 26 27 27 26 26 24 20 18 19 21 23 21 18 21 26 30 31 26 23 27 35 43 48 42 32 33 41 48 53
17 17 17 17 18 17 18 18 17 17 17 16 16 17 17 17 18 19 20 20 19 18 19 18 17 17 17 16 16 14 13 13 13 12 13 14 15 15 15 16 17 18 18 19 19 20 20 21 22 21 19 20 21 21 22 25 26 26 26 27 28 27 26 24 20 20 20 19 15 9 9 18 30 33 27 22 25 34 37 36 38 39 36 39 48 51 51
16 16 17 17 17 17 17 17 17 17 17 17 17 17 17 18 20 20 21 20 19 18 19 19 18 19 18 17 16 15 15 15 15 15 16 16 16 16 16 17 19 18 18 20 19 20 21 21 22 21 18 19 20 20 22 24 26 27 26 25 27 26 25 25 22 21 21 20 18 16 18 24 31 31 28 26 32 39 31 19 26 41 44 44 50 51 49
15 16 16 17 17 17 17 17 18 18 18 18 18 18 19 20 21 21 21 20 20 19 20 20 20 20 19 19 18 18 18 18 17 17 17 18 18 18 18 19 20 19 19 21 20 21 21 20 21 21 19 20 20 20 21 23 24 26 25 24 26 27 25 23 22 23 22 19 21 26 28 29 31 32 31 31 34 34 23 19 33 46 46 46 50 50 48
15 16 16 17 17 17 17 18 18 18 18 18 18 19 20 21 21 21 21 21 20 20 20 20 20 20 21 20 20 20 20 19 19 18 19 19 19 19 18 19 21 20 20 21 21 21 21 20 20 20 20 21 21 21 23 25 25 25 23 21 24 25 24 23 22 22 23 22 23 27 28 30 33 34 34 34 32 29 28 34 43 46 46 48 49 48 48
14 15 16 16 16 17 17 17 18 18 18 18 18 19 20 21 21 22 22 21 20 20 20 21 21 21 22 22 21 20 20 20 19 19 19 20 21 20 19 20 21 21 21 22 22 22 22 21 20 19 19 21 22 23 25 27 28 25 21 21 24 24 22 23 24 22 21 21 19 18 22 31 37 36 36 35 33 33 37 42 43 43 46 48 46 47 48
13 14 14 15 15 16 16 17 17 17 18 18 18 20 20 20 21 22 21 21 21 20 20 21 22 22 23 22 21 20 20 19 19 19 19 19 21 21 21 21 22 22 22 23 23 23 22 23 21 20 21 23 23 24 27 30 31 28 24 25 28 26 22 24 26 24 20 19 20 23 31 39 39 36 35 35 35 36 38 40 41 44 46 46 47 49 47
11 12 13 14 15 15 16 16 17 17 17 18 19 19 19 19 21 21 21 21 21 20 20 22 22 23 23 22 20 20 19 19 18 19 19 19 20 20 21 21 21 22 22 22 24 23 23 24 23 23 24 25 25 26 27 30 32 32 30 30 30 30 30 29 31 31 27 28 33 40 43 42 39 37 38 39 39 38 37 38 43 47 48 49 49 48 45
9 10 11 13 14 15 16 16 16 16 17 17 18 18 18 19 20 20 21 21 20 19 20 22 23 22 22 22 20 19 19 19 18 19 20 20 20 20 21 22 22 22 22 22 24 24 25 25 24 26 27 26 27 28 29 30 33 34 34 35 35 35 34 32 33 35 35 37 42 45 45 43 41 41 42 44 43 42 41 43 48 50 51 49 45 44 44
7 9 10 12 13 14 15 15 15 16 16 16 16 16 17 18 19 19 20 20 20 19 20 21 22 22 22 21 20 19 19 19 20 20 21 22 22 22 23 23 24 24 24 24 25 25 27 27 25 27 28 26 27 29 29 31 34 35 36 39 39 36 32 31 34 35 36 41 45 44 43 44 44 45 47 47 46 45 46 48 52 53 51 47 44 44 44
7 9 10 11 12 13 14 14 14 15 15 15 15 15 16 16 17 18 18 19 19 18 19 21 21 21 21 20 19 19 20 20 21 22 23 24 24 24 24 25 26 26 26 27 27 27 28 28 26 27 29 28 28 29 30 32 35 37 38 38 37 33 31 33 34 34 38 46 47 44 42 44 45 47 49 48 48 48 48 51 54 53 49 45 43 43 43
7 9 9 10 11 12 13 14 14 14 15 15 15 15 15 15 16 17 17 17 17 17 18 20 20 20 20 19 18 20 20 20 21 23 24 24 24 25 26 26 27 28 29 29 29 29 29 29 28 28 29 28 29 30 31 33 35 37 38 35 32 31 33 32 32 35 41 47 47 45 46 48 47 47 49 49 48 48 48 52 53 50 46 44 44 43 43
8 9 9 10 11 11 12 13 14 14 15 15 15 14 14 14 14 15 16 16 16 16 17 19 19 19 19 19 19 20 20 20 22 23 24 24 24 25 27 28 29 30 31 32 32 31 31 31 30 30 29 28 29 32 34 35 35 38 37 33 31 32 33 32 33 37 41 43 43 42 45 49 49 49 49 48 47 47 50 52 50 46 44 44 44 45 46
8 9 10 11 11 12 13 13 14 14 14 15 14 14 13 13 14 14 14 14 15 15 17 18 18 18 17 18 19 20 20 20 22 24 24 25 25 26 28 30 31 32 33 34 34 34 33 33 32 30 28 28 31 35 37 37 37 38 36 33 32 32 32 32 35 37 39 40 41 41 43 48 51 52 51 50 49 49 48 46 44 42 42 42 44 47 49
9 10 11 12 12 13 13 14 14 14 14 14 14 14 13 13 13 13 13 13 14 15 16 17 17 17 18 19 19 20 20 21 23 24 25 26 27 29 30 32 33 34 35 35 36 36 35 34 33 31 30 30 32 37 40 38 39 39 37 33 32 31 30 32 35 37 40 42 44 45 47 50 52 52 51 49 46 44 42 40 40 41 43 45 48 51 54
11 11 12 13 13 14 14 14 14 14 14 15 15 14 13 13 14 14 14 14 15 16 16 17 17 17 18 19 19 19 21 23 24 25 26 27 29 31 33 34 35 36 36 36 37 38 37 35 34 34 33 31 33 38 40 40 42 41 36 32 33 36 37 38 40 42 45 48 49 48 48 48 49 50 47 43 40 38 40 42 44 46 50 52 54 57 59
11 12 13 13 14 14 14 14 14 14 14 14 15 15 14 14 14 14 15 15 16 17 17 17 17 17 18 19 20 21 22 23 24 25 26 29 31 32 34 36 36 37 37 37 38 38 37 37 37 37 35 33 35 39 41 42 44 41 36 35 41 44 43 43 46 48 49 49 49 49 48 46 47 48 47 46 44 44 46 48 50 53 57 59 61 64 67
12 12 13 13 14 14 14 15 15 14 14 14 14 15 15 15 15 15 16 17 17 17 18 18 17 17 18 19 20 22 23 24 25 25 27 30 33 35 36 37 37 37 37 38 38 38 39 39 39 38 37 36 37 39 41 43 43 40 39 42 45 46 46 49 52 52 50 47 46 47 48 47 46 46 47 47 48 48 51 54 57 61 65 68 71 73 75
12 12 13 13 14 14 15 16 16 16 16 15 14 14 15 15 16 17 18 19 19 18 19 18 17 18 19 20 21 23 24 25 27 28 30 32 35 37 38 38 38 38 37 37 38 39 41 41 41 40 40 39 38 40 42 41 38 38 40 43 45 46 49 51 52 50 48 46 44 43 45 47 48 48 48 50 51 53 57 62 66 71 74 76 77 77 76
12 13 13 14 15 15 15 16 16 17 17 16 16 16 16 17 18 18 19 19 20 19 19 19 18 18 19 20 22 24 26 28 31 34 35 36 37 38 40 40 40 39 38 39 40 42 43 42 41 42 42 40 40 40 40 38 37 40 43 45 47 50 52 52 52 51 49 48 45 43 45 50 54 55 56 57 59 62 66 71 75 78 78 77 75 73 71
12 13 14 15 15 16 16 16 16 16 17 17 17 17 18 18 19 19 19 19 20 20 19 18 18 18 19 21 23 25 27 31 33 36 37 38 38 39 40 41 41 40 41 42 44 44 44 43 42 43 43 42 41 39 38 38 40 43 46 47 50 51 51 50 50 50 49 48 48 49 52 56 59 61 64 67 70 74 77 79 79 77 74 71 69 65 63
13 14 15 16 16 17 17 16 16 17 17 17 18 19 19 19 19 19 20 19 19 19 19 18 18 19 21 23 25 29 32 34 35 36 37 38 39 40 41 42 42 43 44 46 46 45 44 42 42 44 45 43 40 39 39 41 43 44 45 46 46 45 44 44 47 49 50 51 53 56 60 63 66 70 74 76 78 77 76 74 70 66 63 61 60 58 58
14 15 16 16 17 17 17 16 16 17 17 18 19 19 19 19 19 19 19 18 17 17 17 18 18 19 21 23 27 31 34 36 37 38 38 38 40 41 41 42 43 45 46 48 47 45 43 42 43 45 44 41 39 40 40 40 41 41 41 42 41 40 41 44 48 54 58 60 62 65 69 71 73 75 75 75 73 70 67 65 62 59 57 57 57 58 59
17 17 18 17 17 17 17 17 17 18 18 18 18 19 19 19 19 18 17 16 16 16 16 17 18 21 24 26 27 30 34 37 39 39 39 39 41 41 40 41 43 45 47 48 46 42 41 42 44 45 43 40 39 39 39 38 39 39 39 39 40 42 46 50 55 61 66 68 70 71 72 72 72 71 69 67 65 64 63 61 60 58 57 57 59 61 63
18 18 18 18 18 18 18 18 18 18 18 18 19 19 18 18 17 16 15 15 16 17 17 18 20 23 27 30 29 29 33 37 39 40 40 40 40 40 41 42 42 43 46 47 44 40 41 43 44 45 43 41 39 39 39 40 41 41 41 41 43 47 52 56 61 66 72 75 76 74 70 68 67 65 64 63 62 62 61 61 60 59 59 61 63 65 67
18 19 19 19 19 18 18 18 18 18 18 19 18 17 16 15 14 14 15 16 17 18 19 22 23 25 28 32 33 32 33 36 38 41 42 41 39 40 42 42 41 41 43 43 41 40 41 43 44 45 43 40 38 39 39 40 41 43 45 47 48 51 56 60 65 72 77 79 77 73 69 65 63 62 61 60 60 60 61 61 60 61 62 64 66 68 69
19 19 19 19 19 19 18 18 18 18 19 18 16 14 13 13 13 14 16 17 19 20 22 25 27 27 28 33 35 36 36 38 39 41 43 43 41 41 42 41 38 37 38 39 41 43 43 43 43 43 41 38 38 40 41 42 45 47 49 50 52 57 62 68 73 76 77 74 71 67 63 61 59 59 59 59 60 61 63 63 64 65 66 68 69 69 69
19 19 19 19 19 19 19 18 18 18 17 15 12 11 12 13 15 16 17 19 21 23 25 27 28 30 31 34 36 37 38 39 40 41 43 43 41 41 42 40 36 33 36 41 45 44 43 41 41 41 39 38 39 40 41 44 46 49 52 56 61 67 71 74 73 71 68 65 63 61 59 58 59 59 60 62 64 65 66 68 68 68 68 68 67 66 64
19 19 19 19 19 19 19 18 18 16 13 11 11 12 14 16 17 18 18 20 22 24 26 28 30 31 32 34 37 38 38 39 40 41 42 41 39 38 39 38 36 36 41 45 45 42 41 41 40 39 37 38 39 40 43 46 52 57 62 66 69 70 69 67 64 62 60 59 58 58 59 61 62 63 64 66 67 68 68 68 67 66 65 64 63 62 62
19 19 19 19 19 19 18 17 16 14 12 11 13 15 16 18 20 20 20 21 23 25 27 29 32 34 34 36 39 40 39 40 42 41 38 38 37 35 35 37 39 41 43 43 42 40 39 38 37 36 38 40 43 47 52 57 63 67 69 69 67 64 62 60 60 60 61 61 61 63 65 66 66 67 68 67 67 66 66 65 63 62 61 62 62 62 61
19 19 19 18 18 18 16 15 14 14 13 13 15 16 18 20 21 21 21 23 25 27 28 31 34 36 37 38 40 40 40 41 41 39 36 36 36 35 35 38 42 42 41 39 38 38 37 36 36 38 43 47 52 57 62 65 67 67 66 64 62 61 61 61 63 64 65 66 67 68 68 68 68 68 68 66 64 63 62 61 59 58 58 58 58 58 58
18 18 18 18 18 17 15 15 14 15 15 15 17 18 19 20 21 22 23 25 27 29 30 33 36 38 39 39 40 41 40 40 40 37 34 32 33 35 38 40 39 36 33 33 34 36 38 38 40 44 50 56 61 64 65 65 64 62 62 62 62 63 63 64 66 66 67 68 69 69 68 68 67 65 64 63 61 60 59 57 57 56 56 56 56 56 55
19 19 18 18 16 16 15 15 15 15 16 17 18 18 19 20 22 23 25 26 28 30 33 35 37 39 39 40 40 40 39 38 37 35 32 31 33 37 38 36 33 32 32 33 35 38 40 43 47 53 58 62 64 64 62 62 62 62 62 63 64 64 65 65 66 67 68 68 68 67 66 65 63 61 61 60 59 58 57 57 57 57 57 57 57 56 55
19 18 17 16 15 15 15 16 16 16 17 18 18 18 19 21 23 25 26 28 30 32 35 37 39 40 39 39 40 40 39 36 34 33 32 32 33 34 32 31 32 34 35 35 37 41 46 50 55 59 60 61 62 62 62 63 64 64 64 64 64 65 65 66 66 67 66 66 65 64 62 60 59 60 60 60 59 59 59 60 60 60 60 60 60 59 57
19 18 17 15 15 15 15 16 16 17 18 18 18 19 20 22 24 26 28 30 32 34 36 38 39 39 39 39 40 39 36 33 33 35 36 34 32 30 31 33 35 37 37 38 42 49 54 57 58 58 59 61 62 63 63 63 63 63 63 63 64 64 65 65 65 64 63 62 61 60 59 59 60 60 60 60 60 61 63 63 63 63 63 63 62 60 58
19 18 17 15 15 15 15 16 16 17 18 19 19 20 22 24 26 27 29 31 33 34 36 37 38 38 39 39 38 36 34 34 36 38 39 36 33 31 32 34 37 39 42 45 50 54 56 57 57 58 60 61 61 61 61 62 62 62 62 62 62 62 62 62 61 61 61 61 61 61 61 61 61 61 61 62 63 64 65 66 65 65 65 65 63 61 59
18 18 17 16 16 16 16 16 17 17 18 19 20 22 24 26 28 29 30 32 33 35 35 36 37 37 37 36 35 34 35 36 38 39 39 37 34 32 34 37 41 45 48 50 54 56 57 57 56 57 59 60 60 60 60 61 62 62 62 62 61 61 61 61 61 62 63 63 64 64 64 64 63 63 64 65 65 66 67 67 67 67 67 65 64 62 60
18 17 17 17 17 17 16 17 18 18 19 20 22 23 25 28 30 31 31 33 34 35 35 35 36 36 35 34 34 34 35 36 38 40 41 38 35 35 39 43 46 47 49 52 55 57 57 55 54 55 57 59 59 60 61 62 62 63 63 63 63 63 63 63 64 65 66 66 67 67 67 67 67 67 67 68 68 68 68 68 68 68 68 67 65 63 59
Wind_Direction
46 47 45 46 48 50 52 48 47 51 46 46 49 46 45 48 58 69 73 71 70 65 65 71 71 72 73 71 67 63 53 46 41 35 33 28 22 19 16 13 11 7 5 4 3 5 6 2 2 359 355 352 346 344 343 339 339 339 336 336 334 332 327 319 321 327 333 339 339 322 316 323 323 321 318 312 305 296 287 280 286 292 279 273 257 239 289
24 25 25 25 24 27 32 31 32 35 37 39 37 31 29 31 45 58 58 57 54 36 48 60 60 61 66 65 61 58 50 45 39 33 30 26 22 19 15 13 10 7 6 4 4 5 4 1 1 358 354 352 349 346 343 342 342 340 338 337 336 333 329 324 324 330 338 343 344 333 324 323 321 320 318 313 308 303 293 285 284 282 279 279 255 244 292
10 11 9 9 10 10 11 15 17 15 21 26 23 20 20 22 33 41 45 48 39 25 48 54 49 53 60 57 53 50 44 41 36 30 27 25 24 20 16 14 10 9 9 6 6 7 5 3 1 359 356 354 353 350 348 346 344 344 343 340 338 333 330 329 322 314 322 325 322 321 321 321 323 325 321 316 313 307 296 288 276 267 277 278 266 270 296
0 3 5 4 3 2 3 6 7 8 11 12 13 17 14 16 33 37 45 50 36 34 51 50 43 47 47 43 46 45 40 37 32 29 26 24 24 21 16 14 11 10 10 8 8 7 6 4 0 359 359 356 354 353 352 351 349 349 347 343 341 336 334 335 326 310 305 308 316 323 321 318 324 331 329 323 319 314 306 290 268 269 278 281 293 299 302
359 1 4 6 4 2 1 359 359 7 12 13 22 25 14 20 40 40 43 49 39 39 48 47 42 40 35 38 46 44 38 34 29 27 25 22 21 19 14 12 9 7 6 6 5 2 2 1 358 357 358 356 355 355 354 355 355 353 349 347 345 338 336 340 336 328 324 324 329 334 327 320 324 331 335 332 327 320 312 300 290 291 276 279 319 327 314
7 8 11 16 18 18 18 14 8 6 10 26 37 36 34 43 52 49 51 55 51 46 46 45 41 35 31 38 44 40 33 29 25 25 22 15 14 15 12 8 5 3 2 1 359 356 355 355 354 354 356 355 356 356 355 357 357 354 350 350 347 340 339 342 339 334 333 335 340 339 332 327 327 330 335 338 336 327 320 321 320 302 272 289 329 334 323
23 28 31 36 40 44 46 50 53 58 63 59 54 55 60 63 66 65 62 61 59 53 49 46 39 31 31 36 38 33 26 22 21 20 16 10 9 10 7 3 1 360 358 355 355 354 351 351 350 350 353 354 354 354 355 356 356 354 351 351 349 342 340 344 339 331 333 340 342 338 334 329 327 330 339 343 338 331 325 335 335 311 299 319 330 325 324
41 46 51 57 61 63 65 66 69 70 69 66 65 69 70 69 70 69 66 65 63 57 52 49 39 36 42 41 37 32 24 21 19 14 12 10 7 6 4 1 358 356 354 352 352 351 349 348 347 347 349 351 352 354 355 355 354 354 352 350 350 345 341 346 339 328 330 340 339 334 332 327 326 336 351 342 335 333 333 337 333 322 323 331 328 321 325
53 62 71 75 74 72 71 70 68 68 70 70 69 69 68 68 69 68 66 67 67 62 58 56 48 48 52 46 40 34 26 23 19 13 12 10 6 4 1 359 356 353 352 351 349 348 348 348 347 345 345 347 350 352 354 355 352 351 350 349 351 350 344 345 340 325 325 337 337 332 331 328 331 352 347 336 332 336 337 333 330 330 332 331 326 323 323
73 79 81 79 76 73 71 70 67 67 69 68 64 63 64 65 66 66 63 65 67 65 62 62 56 53 53 47 41 35 27 23 19 14 13 10 6 3 360 357 355 352 352 351 350 349 348 347 345 343 344 345 346 348 352 354 349 346 348 348 350 351 343 342 340 322 322 335 337 330 330 331 345 356 340 331 328 331 325 318 320 330 332 327 324 322 316
86 86 82 77 74 72 70 69 67 64 62 62 60 59 59 58 58 59 57 58 63 63 61 60 56 53 52 46 40 35 27 23 19 14 12 9 5 2 359 357 355 353 353 353 351 349 348 346 345 345 346 345 346 350 352 352 348 345 346 345 345 346 341 340 336 320 321 332 334 331 331 334 346 343 336 324 316 322 316 309 314 325 325 322 322 319 313
87 84 80 77 74 72 69 66 64 59 54 55 57 55 54 52 51 51 48 48 56 59 56 55 55 53 51 46 40 36 30 24 19 14 11 8 5 2 359 358 357 356 356 354 352 350 349 349 350 352 352 350 353 357 354 352 349 346 346 344 341 341 339 336 332 321 319 328 335 337 326 317 330 337 335 321 318 318 313 307 311 318 318 319 320 315 310
84 82 80 77 73 69 66 62 59 55 51 52 54 52 52 50 47 45 42 43 50 53 50 51 52 51 50 46 40 35 32 27 20 15 11 8 6 3 1 1 360 359 358 356 353 353 353 354 357 359 359 359 1 1 355 353 350 346 345 342 339 339 338 334 330 324 321 325 329 319 309 320 330 337 330 324 321 321 320 314 313 317 318 318 317 311 311
81 79 76 71 66 61 57 54 52 50 49 49 50 50 51 50 46 44 41 41 45 47 47 48 49 46 44 42 38 33 29 25 20 16 13 10 8 6 3 3 2 2 1 357 355 358 360 360 2 4 4 4 3 357 353 353 350 345 343 341 340 338 336 334 329 323 319 315 310 308 314 323 333 333 328 326 319 322 327 319 315 320 321 317 315 313 316
77 73 68 62 57 52 48 46 44 44 43 42 42 45 48 47 45 43 41 39 40 44 44 42 41 39 35 33 31 28 24 22 19 16 13 12 10 6 4 5 5 4 3 360 359 4 5 3 4 5 4 2 357 349 348 351 349 346 344 342 341 337 333 333 325 316 315 308 306 313 317 321 330 330 327 322 312 317 322 315 315 324 324 315 316 318 319
70 66 61 56 51 46 42 40 37 37 37 34 36 40 41 41 40 39 39 37 36 40 40 36 33 31 29 26 23 21 19 16 15 14 12 12 11 7 6 8 8 6 5 3 4 9 9 6 6 5 1 358 351 342 343 348 348 348 346 342 340 336 332 329 319 311 313 305 294 285 280 311 332 336 329 316 310 316 317 310 314 326 326 317 319 321 321
63 59 54 50 47 43 40 37 34 34 33 31 33 35 33 33 33 34 35 34 32 35 36 32 29 27 25 22 18 16 14 11 10 11 11 12 11 8 8 9 9 7 5 5 7 10 9 6 4 2 359 355 349 341 339 343 344 345 344 341 338 334 329 325 317 311 311 301 287 282 291 314 335 341 333 321 314 316 314 302 313 325 326 321 320 319 319
56 52 49 46 43 41 39 37 34 34 32 31 32 32 30 29 30 30 32 31 28 31 33 30 27 26 22 18 14 12 11 10 10 11 10 10 10 10 9 9 8 6 5 7 7 7 8 5 1 358 354 351 348 339 335 336 337 338 340 338 335 332 327 321 316 314 311 299 288 292 305 324 339 339 331 323 317 315 308 299 311 319 321 319 318 317 317
51 48 45 42 41 39 38 36 34 32 31 28 29 30 29 28 28 28 28 28 26 29 31 28 24 23 20 15 12 11 10 9 9 10 11 10 10 10 9 7 6 4 4 5 5 3 2 2 358 353 347 345 343 336 331 330 330 334 337 334 330 330 324 317 315 314 309 301 292 291 306 330 341 336 328 322 318 313 307 307 311 313 314 315 315 314 314
46 43 40 38 38 37 36 35 32 30 29 25 25 29 28 26 26 26 25 26 25 26 27 25 22 20 16 13 11 10 9 9 9 9 10 9 7 7 8 6 4 2 1 360 360 358 355 354 353 348 340 338 336 331 329 329 331 334 332 324 324 323 314 311 314 312 305 299 290 287 309 330 336 333 327 321 314 308 307 308 308 308 310 311 311 311 311
41 38 34 33 33 32 32 32 30 29 27 24 23 28 27 23 25 25 22 23 23 21 22 21 18 16 13 11 9 7 6 7 7 7 8 7 5 4 5 4 0 359 358 354 353 352 349 346 344 339 334 330 328 327 326 326 330 334 329 322 323 321 313 311 311 307 299 288 288 305 321 326 327 326 322 316 311 308 305 304 304 306 308 309 309 309 307
34 30 27 25 25 25 26 26 26 25 24 22 23 26 23 20 21 20 18 20 19 17 17 16 13 11 9 7 4 2 2 2 3 3 2 2 2 1 360 358 356 355 354 350 347 346 342 339 337 332 330 328 324 325 325 321 323 329 327 321 319 320 318 313 305 302 298 292 301 316 325 325 322 319 315 312 311 309 306 304 306 308 310 311 310 306 303
25 21 20 18 17 17 17 17 18 18 18 18 19 19 16 16 18 16 15 17 15 12 12 11 9 7 5 2 359 358 357 356 358 358 356 355 356 355 353 352 350 350 349 346 344 341 337 336 334 328 329 328 322 322 324 320 320 325 326 322 321 323 321 312 305 306 303 301 310 320 322 320 318 314 311 311 311 311 310 309 310 312 312 310 304 299 297
16 14 13 11 9 7 6 6 8 9 9 11 11 10 11 14 14 12 13 13 11 9 9 7 4 1 359 358 355 352 352 352 352 352 350 349 349 348 348 347 344 345 345 343 341 339 335 334 331 327 327 325 318 318 320 319 320 322 322 325 329 329 322 311 308 308 301 301 313 322 319 316 315 312 311 312 311 312 313 312 310 310 308 303 297 293 291
8 8 7 5 2 359 357 356 356 357 358 0 0 1 7 11 9 7 9 10 7 6 4 2 359 356 354 352 350 348 348 347 346 346 345 344 342 341 342 341 340 340 340 339 337 335 333 332 329 325 324 321 317 317 317 317 318 318 319 329 336 329 318 314 314 309 301 303 314 321 316 312 312 311 312 313 312 312 311 307 307 306 301 296 291 288 287
1 1 360 358 357 356 354 351 349 349 349 351 353 357 3 5 3 2 4 4 3 2 359 355 353 350 348 347 346 345 343 341 340 341 339 337 335 335 335 336 336 336 335 334 334 332 331 331 328 324 323 319 315 315 316 316 317 316 319 334 341 329 319 319 316 309 306 310 318 323 318 312 308 308 309 309 308 307 303 300 301 299 293 289 286 283 285
351 351 350 351 352 353 352 351 349 347 345 345 347 350 353 354 355 357 359 358 356 355 352 349 346 344 343 343 341 340 338 336 335 334 333 331 330 330 332 334 334 333 332 331 331 330 330 330 329 325 323 318 314 315 316 317 318 318 322 336 344 334 326 325 320 314 312 315 319 320 315 308 304 303 302 301 301 299 296 295 295 291 288 288 288 287 288
339 339 339 342 345 349 350 350 350 348 345 342 341 342 344 346 348 351 351 348 346 346 344 342 340 338 337 337 336 335 333 330 329 328 327 326 326 327 330 331 330 330 330 330 329 330 329 329 328 326 324 320 316 315 317 317 317 319 325 337 342 336 330 328 323 317 311 307 307 305 301 300 300 299 299 299 298 296 294 293 292 291 292 294 297 301 302
331 333 335 337 340 343 345 346 348 348 346 342 340 338 338 339 339 339 340 338 337 337 338 338 336 332 331 332 331 329 327 324 324 323 322 323 325 326 327 328 327 328 329 328 328 328 328 328 327 325 324 322 316 315 317 318 316 319 330 340 339 330 322 316 311 306 301 299 298 296 295 296 298 299 300 301 298 294 291 291 292 296 301 303 305 308 311
331 333 335 336 336 337 339 340 343 346 345 343 340 335 333 332 330 329 331 331 330 332 334 334 331 328 327 327 325 323 321 320 320 321 321 322 325 325 325 326 327 327 328 328 327 327 327 328 326 324 324 322 316 313 315 315 313 321 334 336 322 313 308 305 304 303 302 301 300 297 297 297 298 297 297 296 293 291 294 297 301 304 306 307 308 308 310
336 337 337 336 334 334 334 335 337 340 341 340 337 332 329 328 326 324 325 327 327 329 330 329 326 323 323 323 320 317 317 317 318 320 321 322 323 324 324 325 326 328 328 328 327 327 327 328 325 324 324 321 315 313 314 313 313 319 325 318 309 308 307 306 306 306 305 303 301 299 298 297 296 295 294 293 292 294 298 301 303 305 307 309 310 312 314
341 338 337 336 334 332 332 331 331 333 333 334 334 330 325 324 322 322 323 325 326 326 326 324 321 319 318 317 315 313 314 315 316 318 321 322 322 323 324 324 326 328 328 327 327 328 329 328 325 324 323 320 315 313 315 314 312 311 310 307 306 307 306 305 307 307 305 302 301 301 301 300 299 298 299 300 299 300 303 304 306 309 312 314 316 317 319
337 336 335 334 333 331 330 329 328 328 327 328 328 326 322 320 321 322 323 324 323 322 321 319 317 316 315 314 314 313 313 315 316 317 320 323 323 323 324 326 327 329 329 329 330 330 329 328 325 323 323 320 314 313 315 313 308 303 301 302 303 303 304 305 305 304 302 301 302 307 311 312 311 309 308 306 304 304 306 309 312 315 317 319 320 321 322
333 332 331 331 329 327 326 326 325 325 325 326 327 325 322 321 322 322 322 322 320 318 318 317 316 315 314 313 313 313 314 316 318 320 322 325 326 327 327 327 329 330 330 331 331 331 329 327 324 322 322 320 316 313 312 308 303 300 300 300 300 301 302 302 301 300 300 301 302 306 311 313 314 312 310 309 308 309 311 313 316 318 319 320 321 323 324
328 328 327 326 324 322 321 322 321 321 322 323 323 323 321 321 321 320 320 319 316 314 316 317 316 315 314 313 314 315 316 319 321 323 325 328 329 329 329 328 330 332 331 331 331 331 328 326 323 321 322 321 316 312 308 304 301 300 300 300 301 301 302 303 303 304 304 305 306 308 310 311 311 311 310 311 313 315 317 318 318 319 320 320 320 322 324
323 323 322 320 319 318 318 319 319 319 321 321 320 320 320 320 319 319 318 316 315 315 316 317 317 317 317 318 319 319 320 321 323 325 327 329 329 330 330 330 331 332 330 330 330 330 327 324 321 321 322 320 314 308 304 301 301 301 300 300 301 301 303 308 311 312 312 311 311 311 311 310 311 312 313 316 318 319 320 320 319 319 319 319 320 322 323
318 317 317 316 316 316 316 317 317 318 319 319 318 319 319 318 317 316 315 314 315 317 318 318 319 320 319 321 322 322 321 323 325 327 329 330 331 331 331 331 331 330 328 328 329 328 325 321 320 320 320 317 311 306 303 301 300 300 299 298 299 299 302 307 312 314 314 313 312 313 314 315 317 318 320 321 322 321 320 319 319 319 319 319 320 320 320
316 316 317 316 315 315 315 316 317 317 317 318 319 318 318 317 317 316 315 315 317 320 321 320 321 321 319 321 325 325 324 325 326 327 329 331 332 331 331 331 330 328 325 326 328 326 322 319 319 319 318 314 309 306 304 301 299 298 297 298 301 305 309 313 316 318 320 320 320 321 322 323 323 323 322 321 320 319 318 318 318 317 316 316 316 317 317
314 315 315 315 315 316 316 316 317 318 318 318 319 318 319 319 317 316 317 320 322 323 323 321 322 323 321 322 327 330 327 325 325 326 329 332 332 330 329 329 328 324 321 322 325 324 320 317 317 317 316 312 309 307 305 302 299 296 295 296 301 306 311 314 316 319 322 324 324 324 323 322 321 319 319 318 317 317 317 317 317 316 314 313 313 314 314
312 313 314 315 316 316 316 316 317 318 318 319 320 320 320 321 319 319 322 325 324 324 323 321 323 326 326 325 327 330 328 326 325 327 329 331 331 328 326 326 325 321 318 321 323 322 316 313 313 315 315 312 309 306 304 300 296 293 292 293 297 303 308 311 314 316 318 319 319 319 318 318 317 316 317 318 319 319 318 318 317 316 314 312 311 311 311
313 314 315 316 316 315 316 317 318 318 318 320 322 322 321 323 323 324 326 326 324 323 322 321 324 329 330 327 326 328 328 327 327 328 328 329 329 326 325 325 322 317 316 320 321 317 312 310 312 314 313 310 307 304 300 296 294 294 295 297 300 305 308 310 312 314 316 317 318 318 318 317 316 317 318 318 319 318 318 317 316 315 313 312 311 310 311
312 312 314 315 314 315 317 319 320 320 321 322 323 324 324 323 325 326 326 325 322 321 323 324 327 331 331 327 325 326 327 327 327 328 328 327 326 325 324 324 319 313 314 318 317 313 309 309 311 312 311 307 303 299 296 295 297 299 300 303 306 309 312 313 315 317 318 319 319 318 318 317 317 317 317 317 317 317 316 316 315 315 314 313 313 314 314
311 312 314 315 315 316 319 321 321 322 323 321 323 325 324 322 322 324 324 322 320 321 325 326 327 328 328 325 323 324 326 327 327 327 326 325 325 324 322 320 316 312 313 316 313 309 308 311 313 311 308 304 300 297 296 297 300 303 305 308 312 314 316 318 319 320 320 320 319 319 318 318 317 317 317 317 317 317 317 317 317 317 317 317 317 317 317
313 313 315 317 318 320 322 323 321 320 320 320 322 322 320 319 319 321 321 321 321 323 326 326 325 325 326 324 323 326 328 328 327 326 324 323 323 320 317 315 316 314 313 312 309 307 311 316 315 309 304 302 300 299 299 301 305 309 312 315 318 319 320 320 320 320 320 320 320 319 319 318 318 318 318 319 320 321 321 321 321 321 320 319 318 318 318
315 316 318 321 323 324 325 324 321 319 320 321 320 319 318 317 318 319 320 321 322 324 326 326 324 324 325 325 325 327 328 327 325 324 323 322 321 319 316 315 314 312 309 307 307 309 314 316 312 306 302 301 300 301 305 309 313 316 319 320 321 321 321 321 321 320 320 320 320 319 320 320 320 320 321 322 324 325 326 326 326 326 325 323 323 322 321
318 321 323 326 328 327 327 325 320 318 318 317 316 316 316 316 316 318 320 321 323 324 325 324 323 323 324 325 325 327 327 325 323 322 322 320 318 318 318 315 311 306 303 302 306 311 314 313 308 303 302 303 305 309 313 316 319 320 321 322 323 322 322 321 320 320 320 320 321 321 321 322 323 324 325 326 328 329 329 330 330 330 329 328 327 327 326
322 324 327 329 330 329 326 322 317 313 312 311 311 313 313 313 314 317 319 321 323 323 323 323 323 323 324 325 326 326 326 323 321 322 323 320 317 317 317 312 307 305 304 304 308 313 312 308 304 304 306 310 314 317 319 320 321 322 323 323 323 322 322 322 322 322 322 323 323 324 325 325 327 328 329 330 330 331 331 331 330 330 330 329 329 329 328
323 326 328 330 329 325 322 318 312 308 307 307 308 310 312 312 314 317 319 320 321 322 323 324 323 323 324 326 326 325 324 323 322 323 323 320 316 315 312 306 303 306 309 310 310 309 306 304 306 310 314 317 318 319 321 322 323 323 324 324 324 323 323 324 324 324 325 326 327 328 329 330 330 331 331 331 331 331 331 331 331 331 330 330 330 329 329
324 326 328 327 324 320 316 311 306 304 303 304 307 310 312 313 314 316 318 319 321 323 323 323 323 324 326 326 325 324 323 323 323 323 322 319 314 310 306 302 304 309 312 311 308 306 306 309 313 317 318 319 319 321 322 323 323 324 325 325 325 325 325 326 327 328 330 331 331 331 332 332 332 332 332 331 331 331 331 331 331 331 330 330 330 328 328
325 326 325 322 318 314 310 304 300 299 300 303 307 311 312 312 313 315 317 319 321 322 323 323 323 324 325 324 323 323 324 325 324 322 320 318 315 310 306 305 307 310 310 309 308 309 312 315 318 319 319 320 322 324 326 326 326 327 328 328 328 328 329 329 331 332 333 333 333 333 333 333 333 333 332 331 331 330 330 331 331 331 331 331 330 329 328
326 325 320 316 313 309 304 300 297 296 298 303 308 311 312 311 312 314 317 319 321 322 323 324 324 324 323 323 323 324 324 323 322 321 320 319 317 313 309 309 310 310 310 310 312 313 315 318 320 321 322 324 326 328 330 330 330 331 332 332 331 331 331 332 332 333 333 333 334 334 333 333 332 332 332 331 330 330 330 331 331 331 331 331 331 330 329
325 321 315 312 310 307 301 296 295 296 300 306 309 310 311 311 312 314 318 321 322 323 325 324 324 323 322 322 324 324 323 321 321 321 321 320 317 314 311 311 311 312 313 314 315 316 317 319 322 325 326 327 328 330 331 330 331 332 333 333 332 332 332 332 333 333 333 332 333 332 332 332 332 331 330 330 330 330 330 330 331 331 330 330 331 331 331